Weather History for Newport, RI

Change the Weather History Date:

Saturday, October 27, 2012

  Actual Average Record
Temperature  
Mean Temperature 55 °F -  
Max Temperature 64 °F 57 °F 74 °F (1977)
Min Temperature 46 °F 43 °F 29 °F (1976)
Degree Days  
Heating Degree Days 10    
Growing Degree Days 5 (Base 50)    
Moisture  
Dew Point 49 °F    
Average Humidity 82    
Maximum Humidity 100    
Minimum Humidity 60    
Precipitation  
Precipitation 0.00 in - - ()
Sea Level Pressure  
Sea Level Pressure 30.04 in    
Wind  
Wind Speed 2 mph (NE)    
Max Wind Speed 13 mph    
Max Gust Speed -    
Visibility 8 miles    
Events      
Averages and records for this station are not official NWS values.
T = Trace of Precipitation, MM = Missing Value Source: NWS Daily Summary

Daily Weather History Graph

Daily Weather History Graph

Search for Another Location

Airport:

Trip Planner

Search our weather history database for the weather conditions in past years. The results will help you decide how hot, cold, wet, or windy it might be!

Date:

Astronomy

Oct. 27, 2012 Rise Set
Actual Time 7:11 AM EDT 5:45 PM EDT
Civil Twilight 6:42 AM EDT 6:14 PM EDT
Nautical Twilight 6:10 AM EDT 6:46 PM EDT
Astronomical Twilight 5:38 AM EDT 7:18 PM EDT
Moon 4:31 PM EDT (10/27) 5:02 AM EDT (10/27)
Length of Visible Light 11h 31m
Length of Day
10h 34m
Waxing Gibbous, 96% of the Moon is Illuminated
Oct 27
Waxing Gibbous
Oct 29
Full
Nov 6
Last Quarter
Nov 13
New
Nov 20
First Quarter

Hourly Weather History & Observations

Time (EDT) Temp. Dew Point Humidity Pressure Visibility Wind Dir Wind Speed Gust Speed Precip Events Conditions
12:53 AM 48.0 °F 46.0 °F 93% 30.12 in 10.0 mi Calm Calm - N/A   Clear
1:53 AM 48.0 °F 46.9 °F 96% 30.12 in 10.0 mi Calm Calm - N/A   Clear
2:00 AM 46.4 °F 46.4 °F 100% 30.11 in 1.8 mi Calm Calm - N/A   Clear
2:08 AM 46.4 °F 44.6 °F 93% 30.11 in 3.0 mi Calm Calm - N/A   Clear
2:21 AM 48.2 °F 46.4 °F 93% 30.10 in 1.8 mi Calm Calm - N/A   Scattered Clouds
2:35 AM 48.2 °F 46.4 °F 93% 30.10 in 4.0 mi Calm Calm - N/A   Mostly Cloudy
2:53 AM 48.9 °F 48.0 °F 97% 30.09 in 10.0 mi Calm Calm - N/A   Overcast
3:11 AM 50.0 °F 48.2 °F 94% 30.09 in 10.0 mi Calm Calm - N/A   Overcast
3:53 AM 53.1 °F 51.1 °F 93% 30.07 in 10.0 mi Calm Calm - N/A   Overcast
4:53 AM 54.0 °F 52.0 °F 93% 30.06 in 10.0 mi Calm Calm - N/A   Overcast
5:53 AM 54.0 °F 52.0 °F 93% 30.05 in 10.0 mi Calm Calm - N/A   Overcast
6:19 AM 51.8 °F 48.2 °F 88% 30.05 in 10.0 mi Calm Calm - N/A   Scattered Clouds
6:40 AM 50.0 °F 48.2 °F 94% 30.05 in 1.5 mi Calm Calm - N/A   Clear
6:49 AM 50.0 °F 48.2 °F 94% 30.05 in 0.8 mi Calm Calm - N/A   Clear
6:53 AM 50.0 °F 48.0 °F 93% 30.05 in 1.5 mi Calm Calm - N/A   Clear
6:55 AM 50.0 °F 48.2 °F 94% 30.05 in 3.0 mi Calm Calm - N/A   Clear
7:53 AM 48.9 °F 48.9 °F 100% 30.07 in 6.0 mi Calm Calm - N/A   Clear
8:53 AM 57.0 °F 51.1 °F 81% 30.08 in 10.0 mi Calm Calm - N/A   Clear
9:53 AM 60.1 °F 51.1 °F 72% 30.06 in 10.0 mi NNE 5.8 mph - N/A   Clear
10:53 AM 62.1 °F 54.0 °F 75% 30.06 in 10.0 mi NNE 5.8 mph - N/A   Partly Cloudy
11:06 AM 60.8 °F 53.6 °F 77% 30.05 in 10.0 mi NNE 8.1 mph - N/A   Mostly Cloudy
11:53 AM 63.0 °F 53.1 °F 70% 30.04 in 10.0 mi NE 5.8 mph - N/A   Mostly Cloudy
12:53 PM 64.0 °F 54.0 °F 70% 30.01 in 10.0 mi NNE 4.6 mph - N/A   Mostly Cloudy
1:18 PM 64.4 °F 53.6 °F 68% 30.01 in 10.0 mi Calm Calm - N/A   Scattered Clouds
1:53 PM 64.0 °F 51.1 °F 63% 30.00 in 10.0 mi SE 6.9 mph - N/A   Partly Cloudy
2:53 PM 64.0 °F 51.1 °F 63% 29.99 in 10.0 mi East 4.6 mph - N/A   Clear
3:53 PM 63.0 °F 50.0 °F 63% 29.99 in 10.0 mi Calm Calm - N/A   Clear
4:53 PM 61.0 °F 46.9 °F 60% 29.99 in 10.0 mi East 6.9 mph - N/A   Clear
5:53 PM 59.0 °F 46.9 °F 64% 29.99 in 10.0 mi ENE 4.6 mph - N/A   Overcast
6:53 PM 57.0 °F 44.1 °F 62% 30.00 in 10.0 mi ENE 6.9 mph - N/A   Clear
7:53 PM 55.0 °F 43.0 °F 64% 29.99 in 10.0 mi NE 10.4 mph - N/A   Clear
8:53 PM 54.0 °F 45.0 °F 72% 29.99 in 10.0 mi NNE 6.9 mph - N/A   Clear
9:53 PM 53.1 °F 46.9 °F 80% 29.99 in 10.0 mi NNE 8.1 mph - N/A   Clear
10:53 PM 53.1 °F 48.0 °F 83% 29.97 in 10.0 mi NNE 12.7 mph - N/A   Clear
11:53 PM 53.1 °F 48.9 °F 86% 29.97 in 10.0 mi NNE 11.5 mph - N/A   Clear